Date,Time,Ammonium-nitrogen,Total oxidised nitrogen,Nitrate-nitrogen,Nitrite-nitrogen,Suspended solids,Soluble reactive phosphorus,Dissolved organic carbon,Total phosphorus
Date,Time,Ammonium-nitrogen,Total oxidised nitrogen,Nitrate-nitrogen,Nitrite-nitrogen,Suspended solids,Soluble reactive phosphorus,Dissolved organic carbon,Total phosphorus
Units: Year month day,Units: Hour minute second,Units: milligrams per litre,Units: milligrams per litre,Units: milligrams per litre,Units: milligrams per litre,Units: milligrams per litre,Units: milligrams per litre,Units: milligrams per litre,Units: milligrams per litre
2012-01-03,12:30,0.035,1.58,1.57,0.0055,12.7,0.0473,2.88,0.0809
2012-01-03,13:00,0.033,1.61,1.6,0.0057,11,0.0464,2.55,0.0807
2012-01-03,13:30,0.034,1.65,1.64,0.0054,9.53,0.0459,2.42,0.0793
2012-01-03,14:00,0.036,1.69,1.68,0.0052,9.73,0.0456,2.38,0.0746
2012-01-03,14:30,0.034,1.72,1.71,0.0052,10.3,0.0425,2.13,0.0689
2012-01-03,15:00,0.032,1.8,1.8,0.005,8.98,0.0417,2.24,0.0661
2012-01-03,15:30,0.032,1.76,1.75,0.0052,8.55,0.0396,2.38,0.0675
2012-01-03,16:00,0.031,1.79,1.78,0.0053,7.25,0.0375,2.26,0.0589
2012-01-03,16:30,0.03,1.8,1.8,0.0049,7.98,0.0379,2.24,0.0598
2012-01-03,17:00,0.032,1.8,1.8,0.0049,7.25,0.0355,2.36,0.0616
2012-01-03,17:30,0.032,1.83,1.83,0.0047,8.33,0.0354,2.1,0.0548
2012-01-03,18:00,< .03,1.87,1.87,0.0048,7.27,0.0353,2.26,0.0562
2012-01-03,18:30,0.033,1.76,1.76,0.0048,6.42,0.0345,2.06,0.0511
2012-01-03,19:00,0.03,2.05,2.05,0.0046,4.87,0.0327,2.16,0.0489
2012-01-03,19:30,< .03,1.98,1.98,0.0044,4.67,0.0318,2.24,0.0471
2012-01-03,20:00,< .03,1.96,1.96,0.0042,5.92,0.0317,2.24,0.0468
2012-01-03,20:30,< .03,2.01,2.01,0.0042,6.53,0.0303,2.13,0.0453
2012-01-03,21:00,0.032,1.88,1.88,< .004,4.47,0.0302,2.22,0.0428
2012-01-03,21:30,< .03,1.92,1.92,< .004,4.32,0.0292,2.09,0.0441
2012-01-03,22:00,0.042,1.86,1.86,0.0041,4.2,0.0306,2.19,0.0429
2012-01-03,22:30,0.031,1.92,1.92,0.0043,4.82,0.0288,1.93,0.0427
2012-01-03,23:00,0.033,1.94,1.93,0.0052,3.93,0.0289,1.96,0.0411
2012-01-03,23:30,0.035,1.93,1.93,0.0047,4.37,0.0279,1.96,0.0398
2012-01-04,00:00,< .03,1.97,1.97,0.0047,4.15,0.0275,2.04,0.039
2012-01-24,12:00,0.065,1.08,1.08,0.0046,17.2,0.0411,4.49,0.108
2012-01-24,13:00,0.048,1.11,1.11,0.0049,10.7,0.0369,4.19,0.0898
2012-01-24,14:00,0.047,1.14,1.13,0.0052,8.58,0.037,3.93,0.0869
2012-01-24,15:00,0.06,1.2,1.19,0.0057,4.97,0.0349,4.01,0.0839
2012-01-24,16:00,0.065,1.22,1.21,0.0059,7.72,0.0342,3.3,0.0872
2012-01-24,17:00,0.067,1.27,1.26,0.0059,6.93,0.0343,3.78,0.0873
2012-01-24,18:00,0.059,1.27,1.26,0.0058,7.12,0.033,3.6,0.081
2012-01-24,19:00,0.078,1.31,1.3,0.0057,6.77,0.0334,3.43,0.0802
2012-01-24,20:00,0.041,1.39,1.39,0.005,7.77,0.0293,3.23,0.0705
2012-01-24,21:00,0.035,1.41,1.41,0.0046,5.42,0.0285,3.07,0.0609
2012-01-24,22:00,< .03,1.41,1.41,< .004,5.55,0.0242,2.7,0.0477
2012-01-24,23:00,< .03,1.39,1.39,< .004,4,0.023,2.61,0.0494
2012-01-25,00:00,< .03,1.41,1.41,< .004,5.65,0.0212,2.48,0.0414
2012-01-25,01:00,< .03,1.42,1.42,< .004,3.93,0.0207,2.56,0.0388
2012-01-25,02:00,< .03,1.47,1.47,< .004,4.3,0.0203,2.39,0.0405
2012-01-25,03:00,< .03,1.42,1.42,< .004,4.15,0.02,2.36,0.0418
2012-01-25,04:00,< .03,1.41,1.41,< .004,3.75,0.019,2.33,0.0359
2012-01-25,05:00,0.032,1.48,1.48,< .004,3.55,0.0198,2.34,0.0363
2012-01-25,06:00,0.037,1.44,1.44,< .004,< 3,0.0216,2.33,0.0395
2012-01-25,07:00,< .03,1.43,1.43,< .004,7.05,0.0198,2.25,0.043
2012-01-25,08:00,< .03,1.44,1.44,< .004,4.65,0.0202,2.25,0.0346
2012-02-06,12:15,< .03,2.05,2.05,< .004,8.07,0.0046,1.45,0.0144
2012-02-06,13:15,< .03,1.95,1.95,< .004,< 3,0.0099,1.22,0.0117
2012-02-06,14:15,0.036,1.98,1.98,< .004,< 3,0.0111,1.27,0.0152
2012-02-06,15:15,< .03,1.91,1.91,< .004,3.27,0.0097,1.29,0.0122
2012-02-06,16:15,< .03,1.94,1.94,< .004,4.17,0.0099,1.35,0.0165
2012-02-06,17:15,< .03,1.96,1.96,< .004,3.02,0.0109,1.46,0.0151
2012-02-06,18:15,0.031,1.93,1.93,< .004,3.52,0.0103,1.51,0.0192
2012-02-06,19:15,0.045,1.91,1.91,< .004,3.32,0.0104,1.48,0.0176
2012-02-06,20:15,< .03,1.9,1.9,< .004,3.57,0.01,1.41,0.0163
2012-02-06,21:15,< .03,1.96,1.96,< .004,3.07,0.01,1.42,0.015
2012-02-06,22:15,< .03,1.97,1.97,< .004,< 3,0.0093,1.44,0.0139
2012-02-06,23:15,< .03,1.97,1.97,< .004,< 3,0.0103,1.34,0.0135
2012-02-07,00:15,< .03,1.96,1.96,< .004,< 3,0.0099,1.35,0.015
2012-02-07,01:15,< .03,1.96,1.96,< .004,< 3,0.0092,1.32,0.013
2012-02-07,02:15,< .03,2.05,2.05,< .004,< 3,0.00909,1.37,0.0118
2012-02-07,03:15,< .03,1.98,1.98,< .004,< 3,0.0084,1.38,0.0119
2012-02-07,04:15,< .03,2.1,2.1,< .004,< 3,0.0102,1.32,0.0118
2012-02-07,05:15,< .03,2.07,2.07,< .004,< 3,0.0088,1.36,0.0111
2012-06-21,22:15,0.543,0.86,0.819,0.0411,399,0.29,17.7,1.24
2012-06-21,23:15,0.378,1.14,1.11,0.0287,145,0.379,15.4,0.814
2012-06-22,00:15,0.345,1.17,1.15,0.0234,79.3,0.296,17.5,0.601
2012-06-22,01:15,0.362,1.34,1.31,0.0256,44.1,0.302,15,0.546
2012-06-22,02:15,0.307,1.42,1.39,0.0256,42.1,0.23,14,0.456
2012-06-22,03:15,0.244,1.42,1.4,0.0249,31.1,0.189,12,0.366
2012-06-22,04:15,0.205,1.42,1.39,0.0284,21.1,0.146,11.1,0.297
2012-06-22,05:15,0.186,1.41,1.39,0.0202,20.5,0.118,10.2,0.257
2012-06-22,06:15,0.249,1.29,1.27,0.0235,44.8,0.146,10.8,0.345
2012-06-22,07:15,0.319,1,0.979,0.0212,62,0.236,12.4,0.489
2012-06-22,08:15,0.272,0.94,0.921,0.0195,135,0.26,12.5,0.637
2012-06-22,09:15,0.232,0.75,0.735,0.0147,246,0.301,11.6,0.799
2012-06-22,10:15,0.195,0.8,0.788,0.0123,92.9,0.284,12.2,0.568
2012-06-22,11:15,0.168,0.89,0.875,0.0152,62.2,0.242,12,0.457
2012-06-22,12:15,0.158,0.84,0.827,0.0131,109,0.236,11.1,0.517
2012-06-22,13:15,0.13,0.89,0.877,0.0133,83,0.218,10.5,0.453
2012-06-22,14:15,0.115,1.01,0.997,0.0135,46.5,0.189,9.85,0.361
2012-06-22,15:15,0.115,1.16,1.15,0.0145,34.1,0.154,9.27,0.304
2012-06-22,16:15,0.098,1.27,1.25,0.0172,30.9,0.136,8.81,0.287
2012-06-22,17:15,0.1,1.33,1.31,0.0217,23,0.123,8.85,0.245
2012-06-22,18:15,0.093,1.33,1.31,0.0159,22.5,0.103,8.33,0.21
2012-06-22,19:15,0.082,1.44,1.42,0.0189,18.7,0.0918,7.67,0.187
2012-06-22,20:15,0.095,1.48,1.46,0.0159,15.2,0.0926,8.04,0.183
2012-06-22,21:15,0.088,1.53,1.51,0.0207,16.8,0.0762,7.5,0.164
2012-08-17,08:30,0.102,0.63,0.534,0.096,599,0.133,15.8,1.27
2012-08-17,09:30,0.344,0.59,0.548,0.0419,176,0.331,17.6,0.816
2012-08-17,10:30,0.292,0.59,0.551,0.0389,93,0.276,16.6,0.584
2012-08-17,11:30,0.215,0.64,0.593,0.0475,53.5,0.217,16.6,0.457
2012-08-17,12:30,0.162,0.65,0.602,0.0482,40.3,0.171,16.1,0.38
2012-08-17,13:30,0.171,0.65,0.608,0.0416,28.7,0.155,16.2,0.318
2012-08-17,14:30,0.149,0.78,0.741,0.0386,26.1,0.138,14.4,0.3
2012-08-17,15:30,0.141,0.73,0.695,0.0355,24.8,0.116,13.4,0.27
2012-08-17,16:30,0.117,0.76,0.726,0.0341,22.2,0.103,12.5,0.233
2012-08-17,17:20,0.108,0.77,0.741,0.029,19.6,0.0891,11.9,0.215
2012-08-17,18:30,0.107,0.78,0.748,0.0324,16.6,0.0814,12,0.193
2012-08-17,19:30,0.094,0.87,0.843,0.0271,15.4,0.0743,10.1,0.17
2012-08-17,20:30,0.089,0.81,0.777,0.0326,14.7,0.0694,9.98,0.155
2012-08-17,21:30,0.071,0.85,0.829,0.0213,12.7,0.0641,9.43,0.145
2012-08-17,22:30,0.073,0.87,0.852,0.0177,10.3,0.0596,8.13,0.132
2012-08-17,23:30,0.078,0.87,0.84,0.0301,13.2,0.0665,8.22,0.142
2012-08-18,00:30,0.068,0.83,0.809,0.0214,16,0.0658,8.81,0.151
2012-08-18,01:30,0.066,0.73,0.709,0.0206,18.7,0.0701,10.7,0.176
2012-08-18,02:30,0.074,0.76,0.74,0.0205,16.2,0.0763,11.4,0.179
2012-08-18,03:30,0.062,0.76,0.735,0.025,14.8,0.0714,11.5,0.167
2012-08-18,04:30,0.063,0.72,0.702,0.0183,14.6,0.0713,11.6,0.177
2012-08-18,05:30,0.062,0.69,0.668,0.0216,22.9,0.0796,12.8,0.196
2012-08-18,06:30,0.066,0.66,0.641,0.0193,25.6,0.0832,12.7,0.221
2012-08-18,07:30,0.067,0.52,0.495,0.0252,84.9,0.102,14.9,0.359
2012-08-25,12:45,0.152,1.19,1.15,0.037,778,0.0764,8.51,1.29
2012-08-25,13:45,0.415,1.12,1.09,0.0269,396,0.251,11.5,0.947
2012-08-25,14:45,0.411,1.11,1.09,0.0201,132,0.311,13.2,0.672
2012-08-25,15:45,0.309,1,0.982,0.018,71.8,0.245,12,0.546
2012-08-25,16:45,0.211,0.95,0.935,0.0148,39.6,0.17,11.9,0.357
2012-08-25,17:45,0.163,0.94,0.928,0.0124,26.1,0.131,11,0.283
2012-08-25,18:45,0.151,1,0.988,0.0117,21.4,0.114,10.4,0.242
2012-08-25,19:45,0.135,0.92,0.909,0.0111,21,0.109,11.4,0.246
2012-08-25,20:45,0.124,0.96,0.949,0.0107,15.1,0.285,10,0.402
2012-08-25,21:45,0.109,0.89,0.88,0.0102,15,0.0983,10.1,0.21
2012-08-25,22:45,0.109,0.96,0.952,0.0077,14.4,0.0897,9.21,0.196
2012-08-25,23:45,0.081,0.97,0.962,0.0084,12.2,0.0843,9.23,0.186
2012-08-26,00:45,0.071,0.98,0.974,0.0063,11.3,0.0733,8.43,0.148
2012-08-26,01:45,0.066,1.05,1.04,0.0059,11.4,0.0651,7.58,0.139
2012-08-26,02:45,0.053,1.14,1.13,0.0055,11.4,0.0594,7.21,0.13
2012-08-26,03:45,0.046,1.11,1.11,0.0049,9.25,0.0549,6.46,0.116
2012-08-26,04:45,0.04,1.19,1.19,0.0045,7.1,0.0493,6.43,0.108
2012-08-26,05:45,0.037,1.16,1.16,< .004,7,0.0454,5.95,0.0875
2012-08-26,06:45,0.036,1.27,1.27,< .004,7.9,0.043,5.13,0.0935
2012-08-26,07:45,0.034,1.26,1.26,< .004,5.05,0.0391,5.07,0.0858
2012-08-26,08:45,< .03,1.27,1.27,< .004,4.9,0.0364,5.3,0.0775
2012-08-26,09:45,< .03,1.28,1.28,< .004,6.15,0.035,4.52,0.0744
2012-08-26,10:45,0.078,1.29,1.29,< .004,4.15,0.0331,4.6,0.0686
2012-08-26,11:45,< .03,1.28,1.28,< .004,7.8,0.0301,4.15,0.0668
2013-08-05,11:12,0.074,1.89,1.84,0.0459,108,0.107,8.84,0.394
2013-08-05,12:12,0.12,2,1.97,0.0314,256,0.178,11.7,0.653
2013-08-05,13:12,0.098,1.72,1.7,0.0248,212,0.194,12.2,0.568
2013-08-05,14:12,0.102,2.01,1.99,0.0231,105,0.189,12.2,0.44
2013-08-05,17:12,0.048,1.69,1.64,0.0508,38.2,0.105,9.99,0.228
2013-08-05,20:12,0.05,1.65,1.64,0.0089,20.4,0.0661,8.15,0.158
2013-08-05,23:12,0.04,1.62,1.61,0.0071,14.7,0.0554,7.3,0.131
2013-08-06,02:12,0.033,1.68,1.67,0.0059,10,0.0432,6.75,0.102
2013-08-06,05:12,< .03,1.77,1.76,0.0059,7.27,0.0355,5.79,0.0765
2013-08-06,08:12,< .03,1.71,1.71,0.005,5.17,0.0314,5.01,0.0625
2013-10-04,09:41,0.299,1.55,1.47,0.0816,301,0.199,12.4,1.01
2013-10-04,10:41,0.146,1.95,1.89,0.0625,,0.302,15,1.58
2013-10-04,11:41,0.354,2.19,2.14,0.0463,226,0.348,13.5,0.878
2013-10-04,12:41,0.307,2.41,2.37,0.0438,99.5,0.28,13.2,0.624
2013-10-04,15:41,0.164,2.3,2.27,0.0312,65.7,0.13,10.4,0.294
2013-10-04,18:41,0.118,2.29,2.27,0.0241,22,0.0816,8.45,0.198
2013-10-04,21:41,0.082,2.37,2.34,0.0283,16.5,0.0625,6.98,0.147
2013-10-05,01:41,0.066,2.24,2.23,0.0126,11.5,0.0456,5.35,0.126
2013-10-05,05:41,0.048,2.19,2.18,0.01,7.63,0.0367,4.9,0.0845
2013-10-16,17:12,0.175,1.55,1.53,0.0174,155,0.196,11.6,0.609
2013-10-16,18:12,0.231,2.1,2.08,0.0186,98,0.204,12.8,0.524
2013-10-16,19:12,0.132,2.43,2.41,0.0154,22.4,0.166,11.2,0.367
2013-10-16,20:12,0.087,2.4,2.39,0.0138,24.7,0.121,9.84,0.271
2013-10-16,21:12,0.055,2.4,2.39,0.0122,18.5,0.0922,8.79,0.206
2013-10-17,01:12,< .03,2.18,2.17,0.0072,14,0.0471,6.88,0.12
2013-10-17,06:12,< .03,1.97,1.97,0.0041,9.25,0.0304,5.04,0.077
2013-10-19,17:42,0.033,1.54,1.53,0.0055,43.2,0.0911,9.21,0.23
2013-10-19,18:42,0.04,1.17,1.16,0.0084,150,0.112,8.19,0.482
2013-10-19,19:42,0.14,1.59,1.57,0.0176,122,0.133,11.2,0.444
2013-10-19,20:42,0.088,1.83,1.82,0.0105,45.2,0.0789,9.78,0.251
2013-10-19,21:42,0.04,1.83,1.82,0.0076,33.4,0.0757,8.67,0.202
2013-10-19,22:42,0.035,1.85,1.84,0.0062,25,0.0647,8.51,0.172
2013-10-20,02:42,< .03,1.92,1.92,< .004,11.7,0.0369,6.13,0.099
2013-10-20,06:42,< .03,1.85,1.85,< .004,9.78,0.0307,5.03,0.0724
2013-10-20,10:42,< .03,1.83,1.83,< .004,17,0.0284,4.42,0.0764
2013-10-20,14:42,< .03,1.61,1.61,0.0046,37,0.0521,6.41,0.16
2013-10-25,07:42,< .03,1.55,1.54,0.007,41,0.0461,4.73,0.156
2013-10-25,08:42,0.066,1.06,1.05,0.0128,124,0.113,8.42,0.381
2013-10-25,09:42,0.042,0.97,0.956,0.0136,124,0.155,8.83,0.433
2013-10-25,10:42,0.081,0.97,0.96,0.0105,56.9,0.128,8.57,0.284
2013-10-25,12:42,0.065,1.45,1.44,0.0079,28.4,0.0809,7.15,0.178
2013-10-25,14:42,0.046,1.63,1.62,0.0062,17.5,0.0531,5.69,0.118
2013-10-25,15:42,< .03,1.52,1.51,0.0053,52.9,0.0663,6.15,0.211
2013-10-25,16:42,0.067,1.06,1.05,0.0118,81.6,0.121,7.72,0.315
2013-10-25,17:42,0.059,0.95,0.94,0.0098,113,0.133,7.95,0.359
2013-10-25,19:42,0.038,1.31,1.3,0.0057,34.4,0.0939,6.87,0.196
2013-10-25,21:42,< .03,1.4,1.4,< .004,20.1,0.0731,6.66,0.151
2013-10-26,00:42,< .03,1.78,1.78,0.0043,15.8,0.0491,5.14,0.0985
2013-10-26,03:42,< .03,1.91,1.91,0.0044,8.4,0.0393,4.5,0.0756
2013-10-26,06:42,< .03,1.93,1.93,0.0045,8.35,0.035,4.02,0.0637
2013-12-14,15:30,0.082,1.16,1.15,0.009,355,0.0662,6.42,0.913
2013-12-14,16:30,0.14,1.07,1.06,0.0109,541,0.167,7.01,1.24
2013-12-14,17:30,0.132,1.03,1.02,0.0077,418,0.223,6.28,1.01
2013-12-14,18:30,0.077,1.06,1.05,0.0079,282,0.221,5.75,0.679
2013-12-14,19:30,0.084,1.26,1.25,0.0075,158,0.174,5.64,0.486
2013-12-14,20:30,0.073,1.55,1.54,0.0068,87.4,0.142,5.22,0.331
2013-12-14,23:30,0.054,2.18,2.17,0.0075,< 3,0.0851,4.28,0.183
2013-12-15,02:30,0.034,2.45,2.44,0.0073,22.5,0.0604,3.65,0.13
2013-12-15,05:30,0.032,2.54,2.54,0.005,14,0.0452,3.25,0.0948
2013-12-15,08:30,0.031,2.41,2.41,0.0041,9.9,0.0362,2.83,0.0717
2013-12-15,11:30,< .03,2.36,2.36,< .004,11.6,0.0296,2.61,0.0653
2013-12-15,14:30,< .03,2.39,2.39,0.0044,8.65,0.0269,2.25,0.053
2014-01-08,00:00,< .03,1.6,1.6,0.0041,9,0.0306,2.87,0.0604
2014-01-08,02:00,< .03,1.61,1.61,< .004,7.95,0.0291,2.22,0.0523
2014-01-08,04:00,< .03,1.77,1.77,< .004,8.25,0.0387,2.18,0.06
2014-01-08,06:00,< .03,1.67,1.67,< .004,5.93,0.0276,2.29,0.0487
2014-01-08,08:00,< .03,1.65,1.65,< .004,5.4,0.0251,2.16,0.0418
2014-01-08,10:00,< .03,1.72,1.72,< .004,6.6,0.0213,2.06,0.0359
2014-01-08,12:00,< .03,1.85,1.85,< .004,5.95,0.0209,1.88,0.033
2014-01-08,14:00,< .03,1.89,1.89,< .004,4.4,0.0199,1.82,0.0329
2014-01-08,16:00,< .03,1.87,1.87,< .004,4.03,0.0194,1.82,0.0294
2014-01-08,18:00,< .03,1.91,1.91,< .004,4.05,0.0182,1.67,0.0272
2014-01-08,20:00,< .03,2.01,2.01,< .004,5.38,0.0201,1.74,0.0318
2014-01-08,22:00,< .03,2.13,2.13,< .004,5.15,0.0203,1.56,0.0344
2014-01-10,10:00,< .03,2.07,2.07,< .004,< 3,0.0158,1.49,0.0243
2014-01-10,11:00,< .03,2.12,2.12,0.0045,4,0.016,1.63,0.0236
2014-01-10,12:00,< .03,2.14,2.14,0.0043,3.15,0.0164,1.61,0.0244
2014-01-10,13:00,< .03,2.1,2.1,< .004,3.75,0.0156,1.67,0.0247
2014-01-10,14:00,< .03,2.14,2.14,< .004,3.1,0.0155,1.63,0.0254
2014-01-10,15:00,< .03,2.11,2.11,< .004,3.55,0.0171,1.68,0.0251
2014-01-10,16:00,< .03,2.04,2.04,< .004,3.27,0.0157,1.5,0.0242
2014-01-10,17:00,< .03,2.06,2.06,< .004,< 3,0.018,1.58,0.0272
2014-01-10,18:00,< .03,2.11,2.11,< .004,4.15,0.0207,1.7,0.03
2014-01-10,19:00,< .03,2.01,2.01,< .004,4,0.0169,1.78,0.0279
2014-01-10,20:00,0.031,1.95,1.95,< .004,7.3,0.0216,1.77,0.0398
2014-01-10,21:00,0.043,1.75,1.75,< .004,9.45,0.0238,2.07,0.047
2014-01-28,02:15,0.049,0.98,0.976,0.0043,134,0.0464,3.14,0.37
2014-01-28,03:15,0.059,0.85,0.846,< .004,78.4,0.0541,3.22,0.26
2014-01-28,04:15,0.048,0.85,0.846,< .004,31.7,0.0449,3.09,
2014-01-28,05:15,0.037,0.88,0.876,< .004,17.5,0.0389,3.05,0.0854
2014-01-28,06:15,< .03,1,0.996,< .004,12.6,0.0332,3.03,0.0768
2014-01-28,07:15,0.038,1.14,1.14,< .004,11.6,0.0321,2.79,0.0725
2014-01-28,08:15,< .03,1.32,1.32,< .004,7.47,0.0264,2.5,0.0576
2014-01-28,09:15,< .03,1.44,1.44,< .004,8.02,0.0228,2.33,0.0483
2014-01-28,10:15,< .03,1.54,1.54,< .004,5.52,0.0214,2.3,0.0454
2014-01-28,11:15,< .03,1.55,1.55,< .004,5.87,0.0213,2.17,0.0431
2014-01-28,12:15,< .03,1.56,1.56,< .004,6.12,0.0193,2.11,0.0418
2014-01-28,13:15,< .03,1.59,1.59,< .004,6.17,0.0214,2.08,0.0435
2014-02-08,01:40,0.076,0.89,0.886,< .004,188,0.0577,3.34,0.482
2014-02-08,05:40,0.034,0.94,0.936,< .004,23.8,0.0455,3.56,0.115
2014-02-08,07:40,0.031,1.07,1.07,< .004,16.2,0.0323,3.07,0.0841
2014-02-08,08:40,0.064,0.8,0.796,< .004,69.6,0.0647,3.72,0.253
2014-02-08,09:40,< .03,1.23,1.23,< .004,9.2,0.0246,2.6,0.0524
2014-02-08,11:40,< .03,1.41,1.41,< .004,7.3,0.0255,2.21,0.0455
2014-02-08,13:40,< .03,1.43,1.43,< .004,7.25,0.0198,2.13,0.0347
2014-02-08,15:40,0.04,1.22,1.22,< .004,50.2,0.0362,2.69,0.166
2014-02-08,17:40,0.05,0.61,0.606,< .004,145,0.0767,3.98,0.412
2014-02-08,19:40,0.038,0.53,0.526,< .004,69.6,0.0617,3.94,0.233
2014-02-08,21:40,0.046,0.66,0.656,< .004,40,0.0589,3.63,0.16
2014-02-08,23:40,0.035,0.98,0.976,< .004,23.9,0.0474,3.23,0.116
2014-02-21,21:25,0.273,0.89,0.885,0.0048,97.3,0.0399,3.83,0.294
2014-02-21,22:25,0.155,0.78,0.775,0.005,69.5,0.0432,3.86,0.211
2014-02-21,23:25,0.106,0.88,0.876,0.0042,27.1,0.0334,3.29,0.105
2014-02-22,00:25,0.088,0.93,0.926,< .004,20.7,0.029,3.09,0.0848
2014-02-22,01:25,0.09,0.95,0.946,< .004,13.8,0.0277,3.01,0.0691
2014-02-22,02:25,0.082,0.99,0.986,0.0041,13.7,0.0275,3.03,0.0667
2014-02-22,04:25,0.081,0.98,0.976,< .004,11.4,0.0268,3.01,0.0654
2014-02-22,06:25,0.054,1.09,1.09,< .004,6.97,0.0221,2.67,0.0516
2014-02-22,08:25,0.047,1.19,1.19,< .004,8.22,0.0186,2.41,0.227
2014-02-22,10:25,0.042,1.3,1.3,< .004,5.15,0.018,2.05,0.0364
2014-02-24,21:00,0.031,1.62,1.62,< .004,8.58,0.0172,1.91,0.039
2014-02-24,22:00,< .03,1.64,1.64,< .004,6.13,0.0172,1.74,0.0356
2014-02-24,23:00,0.045,1.59,1.59,< .004,8.38,0.0201,1.91,0.0427
2014-02-25,00:00,0.069,1.46,1.46,< .004,14,0.0263,2.3,0.0688
2014-02-25,01:00,0.115,1.21,1.21,< .004,38.6,0.05,3.14,0.164
2014-02-25,02:00,0.101,1.04,1.04,< .004,28.3,0.0474,3.26,0.123
2014-02-25,03:00,0.094,1.06,1.06,< .004,22.5,0.0443,3.19,0.11
2014-02-25,04:00,0.08,0.97,0.966,< .004,19,0.0418,3.21,0.0977
2014-02-25,05:00,0.058,1.07,1.07,< .004,11.9,0.0339,2.9,0.0729
2014-02-25,06:00,0.045,1.16,1.16,< .004,9.58,0.0303,2.64,0.0632
